Погода в Брянске

Погода в Брянске : погода сейчас, прогноз погоды и архив. Всё, что Вы хотите узнать о погоде в Брянске!

Поиск расширенной информации на нашем сайте:

Другие новости

Новости СМИ2

Главная страница сайта

Новости сайта

03.07.2017

Напоминаем, что на нашем специализированном сайте Метеоцентр.Азия вы можете получить высокодетализированные автоматические прогнозы погоды по пунктам России, СНГ и мира в авиационном формате (включающие направление и скорость ветра, видимость, явления погоды, количество и форму облачности, нижнюю и верхнюю границу облачности).

Рекомендуем: Детальное описание иайдо харьков на нашем сайте.

Погода в Брянске - сегодня

Время (UTC), дата Ветер
(°,м/с) 
Видим.   Явления Облачность Т
(°С)
Тd
(°С)
f(%) Тe
(°С)
Pmin
(гПа)
dP
(гПа)
Po
(мм)
O2
(г/м3)
Тmin Tmax R s Состояние
почвы
03 15.08.17 030 (СВ) 7000 м  дымка  10/0 средняя 
[Ac und]
+17.9 +16.5 92 +29  1021.7  747  279  +17.9    10     
06 15.08.17 050 (СВ) 9000 м  дымка  10/0 средняя 
[Ac und]
+18.3 +16.1 87 +30  1022.7  748  279  +17.7         
09 15.08.17 030 (СВ) 20000 м    10/0 средняя 
[Ac und]
+19.3 +16.3 83 +31  1023.8  1.2  749  278           
12 15.08.17 070 (В) 20000 м    9/0 средняя 
[Ac trans]
+22.6 +16.4 68 +34  1023.5  749  275           
15 15.08.17 060 (СВ) 20000 м    8/0 средняя 
[Ac trans]
+22.2 +15.5 66 +32  1023.9  0.2  749  276           
21 15.08.17 050 (СВ) 10 км    6/0 средняя 
[Ac trans]
+17.2 +13.5 79 +24  1025.2  0.6  750  281           
00 16.08.17 060 (СВ) 10 км    10/0 средняя 
[Ac und]
+16.7 +12.2 75 +22  1025.3  0.1  750  282           
03 16.08.17 040 (СВ) 15000 м    8/0 средняя 
[Ac trans]
+15.3 +11.8 80 +20  1026  0.5  750  284  +15.3         
06 16.08.17 060 (СВ) 20000 м    ясно 
+19 +13.5 70 +27  1026  0.4  750  280  +15         
09 16.08.17 080 (В) 20000 м    4/4 600 м средняя 
[Ac trans]
+23.4 +13.6 54 +30  1025.5  -0.2  750  276           
12 16.08.17 140 (ЮВ) 20000 м    6/6 960 м 
[Cu med, cong]
+24 +11 44 +27  1025  -0.4  750  276           
15 16.08.17 110 (В) 20000 м    3/3 600 м 
[Cu med, cong]
+24.6 +12.9 48 +30  1024.2  -0.8  749  275           
18 16.08.17 060 (СВ) 10 км    ясно 
+20.6 +13.6 64 +27  1024.6  0.1  749  278    +25.2       
21 16.08.17 070 (В) 10 км    ясно 
+18.5 +13 70 +24  1024.9  0.1  750  280           
00 17.08.17 080 (В) 10 км    ясно 
+15.9 +13 83 +22  1024.5  -0.5  749  283           
03 17.08.17 070 (В) 9000 м  дымка  3/0 средняя 
[Ac trans]
+14.8 +13.7 93 +23  1024.8  0.1  749  284  +14.8         
06 17.08.17 090 (В) 20000 м    ясно 
+20.1 +15.9 77 +30  1024.3  749  278  +14.8         
09 17.08.17 070 (В) 20000 м    ясно 
+24.9 +16.6 60 +37  1023.8  -0.1  749  273           
12 17.08.17 130 (ЮВ) 20000 м    4/4 600 м 
[Cu med, cong]
+27.8 +13.7 42 +34  1022.7  -0.7  749  271           
15 17.08.17 130 (ЮВ) 20000 м    3/3 1000 м 
[Cu hum]
+27.3 +13 41 +33  1022.2  -0.6  748  272           
18 17.08.17 090 (В) 10 км    ясно 
+19.8 +15.2 75 +30  1023.1  0.3  748  278    +28.3       
21 17.08.17 130 (ЮВ) 10 км    ясно 
+17.6 +14.1 80 +26  1023.3  748  280           
00 18.08.17 140 (ЮВ) 10 км    ясно 
+18.2 +12.3 68 +24  1023.5  0.2  749  280           
03 18.08.17 тихо ()   7000 м  дымка  ясно 
+14 +12.9 93 +19  1023.9  0.1  749  284  +14         
06 18.08.17 120 (ЮВ) 20000 м    ясно 
+21.9 +13.9 60 +29  1023.4  0.2  749  277  +14         
Время (UTC), дата Ветер
(°,м/с) 
Видим.   Явления Облачность Т
(°С)
Тd
(°С)
f(%) Тe
(°С)
Pmin
(гПа)
dP
(гПа)
Po
(мм)
O2
(г/м3)
Тmin Tmax R s Состояние
почвы

Для получения пояснительной информации подведите курсор к названию столбца.

ПОГОДА в Брянске - архив

Всё, что Вы хотите узнать о погоде в Брянске - удобно и подробно!

Выберите нужную дату (начиная с 1 января 2015* года) и нажмите кнопку "Найти".
Будут отображены архивные сводки погоды по пункту Брянск, начиная с указанной даты.


Отображать данные в формате CSV (для использования в таблицах Excel)


Внимание! Наш архив погоды предназначен исключительно для личного некоммерческого использования в познавательных целях. Если Вам необходимы официальные справки о состоянии погоды (для производственных, юридических, коммерческих и т.п. целей), обращайтесь в органы Росгидромета.

*Примечание: данная дата относится к архиву по метеостанциям СССР (Россия, СНГ, Балтия).
Архив по метеостанциям Зарубежной Европы и Азии (кроме Китая) хранится 10 дней, по другим регионам земного шара (Китай, Африка, Америка, Австралия, Океания) - 1 день.

Брянск - район местоположения метеостанции


Название, широта, долгота, высота метеостанции:
Брянск (город) 53.2°ш. 34.3°д. 216 м над ур. моря [Российская Федерация]

Дополнительная информация

В oтличие oт бoльшинства пoгoдных сайтoв мы публикуем пoдрoбную метеoинфoрмацию в детальнoм прoфессиoнальнoм фoрмате.

Характеристики температуры и влажнoсти вoздуха измеряются на высoте 2 м в тени вдали oт зданий и деревьев.
Скoрoсть ветра измеряется на высoте 10 м (на урoвне рoста челoвека скoрoсть ветра ниже в 1.5-2 раза). Если метеoстанция нахoдится в гoрoде или в лесу, тo скoрoсть ветра занижена на 2-4 м/с пo сравнению с oткрытым местoм. Скoрoсть ветра над акватoриями крупных рек и oзёр, а также на вершинах хoлмoв на 2-5 м/с выше, чем в oбычных услoвиях.
Атмoсфернoе давление в разных тoчках местнoсти мoжет значительнo oтличаться oт давления на метеoстанции, в зависимoсти oт услoвий рельефа (при пoдъёме на 10 м давление пoнижается примернo на 1 мм рт.ст.).